Malaga, Spain

1:41 AM CEST on August 31, 2016 (GMT +0200)
Malaga

Weather History for LEMG - October, 2013

Change the Weather History Date:

Sunday, October 6, 2013

  Actual Average Record
Temperature  
Mean Temperature 71 °F -  
Max Temperature 82 °F 70 °F 84 °F (2015)
Min Temperature 60 °F 56 °F 53 °F (2000)
Cooling Degree Days 6    
Growing Degree Days 21 (Base 50)    
Moisture  
Dew Point 60 °F    
Average Humidity 72    
Maximum Humidity 83    
Minimum Humidity 46    
Precipitation  
Precipitation 0.00 in 0.09 in - ()
Sea Level Pressure  
Sea Level Pressure 30.11 in    
Wind  
Wind Speed 4 mph ()    
Max Wind Speed 12 mph    
Max Gust Speed -    
Visibility 7.0 miles    
Events      
Averages and records for this station are not official NWS values.
T = Trace of Precipitation, MM = Missing Value Source: Averaged Metar Reports

Daily Weather History Graph

Daily Weather History Graph

Search for Another Location

Airport or City:

Trip Planner

Search our weather history database for the weather conditions in past years. The results will help you decide how hot, cold, wet, or windy it might be!

Date:

Astronomy

Oct. 06, 2013 Rise Set
Actual Time 8:17 AM CEST 7:54 PM CEST
Civil Twilight 7:51 AM CEST 8:19 PM CEST
Nautical Twilight 7:21 AM CEST 8:49 PM CEST
Astronomical Twilight 6:51 AM CEST 9:19 PM CEST
Moon 9:43 AM CEST (10/6) 8:47 PM CEST (10/6)
Length of Visible Light 12h 28m
Length of Day
11h 36m
New Moon, 2% of the Moon is Illuminated
Oct 6
New Moon
Oct 12
First Quarter
Oct 19
Full
Oct 27
Last Quarter
Nov 3
New

Hourly Weather History & Observations

Time (CEST) Temp. Dew Point Humidity Pressure Visibility Wind Dir Wind Speed Gust Speed Precip Events Conditions
12:00 AM 66.2 °F 60.8 °F 83% 30.12 in - Calm Calm - N/A   Clear
12:30 AM 68.0 °F 60.8 °F 78% 30.12 in - Calm Calm - N/A   Clear
1:00 AM 66.2 °F 59.0 °F 78% 30.12 in - WNW 1.2 mph - N/A   Clear
1:30 AM 64.4 °F 59.0 °F 83% 30.12 in - WNW 1.2 mph - N/A   Clear
2:00 AM 67 °F 59 °F 70% 30.14 in 12 mi Calm Calm - -   Clear
2:00 AM 64.4 °F 59.0 °F 83% 30.12 in - Calm Calm - N/A   Clear
2:30 AM 64.4 °F 59.0 °F 83% 30.12 in 6.2 mi WNW 1.2 mph - N/A   Partly Cloudy
3:00 AM 62.6 °F 57.2 °F 82% 30.12 in 6.2 mi NW 2.3 mph - N/A   Partly Cloudy
3:30 AM 62.6 °F 53.6 °F 72% 30.12 in 6.2 mi WNW 4.6 mph - N/A   Partly Cloudy
4:00 AM 64.4 °F 53.6 °F 68% 30.12 in 6.2 mi WNW 6.9 mph - N/A   Partly Cloudy
4:30 AM 62.6 °F 55.4 °F 77% 30.12 in 6.2 mi WNW 8.1 mph - N/A   Partly Cloudy
5:00 AM 62.6 °F 55.4 °F 77% 30.12 in - WNW 8.1 mph - N/A   Clear
5:30 AM 60.8 °F 55.4 °F 82% 30.12 in - WNW 5.8 mph - N/A   Clear
6:00 AM 60.8 °F 55.4 °F 82% 30.12 in - WNW 6.9 mph - N/A   Clear
6:30 AM 60.8 °F 53.6 °F 77% 30.12 in - WNW 10.4 mph - N/A   Clear
7:00 AM 60.8 °F 53.6 °F 77% 30.12 in - WNW 9.2 mph - N/A   Clear
7:30 AM 60.8 °F 53.6 °F 77% 30.12 in - WNW 10.4 mph - N/A   Clear
8:00 AM 62 °F 53 °F 65% 30.14 in 12 mi WNW 10.4 mph - -   Scattered Clouds
8:00 AM 60.8 °F 53.6 °F 77% 30.12 in 6.2 mi WNW 10.4 mph - N/A   Partly Cloudy
8:30 AM 60.8 °F 53.6 °F 77% 30.12 in 6.2 mi WNW 11.5 mph - N/A   Scattered Clouds
9:00 AM 60.8 °F 53.6 °F 77% 30.12 in 6.2 mi WNW 8.1 mph - N/A   Scattered Clouds
9:30 AM 60.8 °F 53.6 °F 77% 30.15 in 6.2 mi WNW 8.1 mph - N/A   Scattered Clouds
10:00 AM 64.4 °F 53.6 °F 68% 30.15 in 6.2 mi WNW 9.2 mph - N/A   Mostly Cloudy
10:30 AM 68.0 °F 55.4 °F 64% 30.15 in 6.2 mi WNW 5.8 mph - N/A   Mostly Cloudy
11:00 AM 71.6 °F 55.4 °F 57% 30.15 in 6.2 mi WNW 4.6 mph - N/A   Scattered Clouds
11:30 AM 73.4 °F 57.2 °F 57% 30.15 in 6.2 mi Variable 2.3 mph - N/A   Mostly Cloudy
12:00 PM 75.2 °F 60.8 °F 61% 30.15 in 6.2 mi Variable 1.2 mph - N/A   Scattered Clouds
12:30 PM 77.0 °F 62.6 °F 61% 30.15 in 6.2 mi Calm Calm - N/A   Mostly Cloudy
1:00 PM 77.0 °F 64.4 °F 65% 30.15 in 6.2 mi ESE 4.6 mph - N/A   Partly Cloudy
1:30 PM 78.8 °F 64.4 °F 61% 30.15 in 6.2 mi SE 3.5 mph - N/A   Partly Cloudy
2:00 PM 82 °F 65 °F 46% 30.14 in 16 mi ESE 5.8 mph - -   Scattered Clouds
2:00 PM 77.0 °F 64.4 °F 65% 30.12 in 6.2 mi East 5.8 mph - N/A   Partly Cloudy
2:30 PM 77.0 °F 64.4 °F 65% 30.12 in 6.2 mi ESE 6.9 mph - N/A   Partly Cloudy
3:00 PM 77.0 °F 64.4 °F 65% 30.12 in 6.2 mi ESE 6.9 mph - N/A   Partly Cloudy
3:30 PM 78.8 °F 64.4 °F 61% 30.09 in 6.2 mi ESE 8.1 mph - N/A   Partly Cloudy
4:00 PM 78.8 °F 64.4 °F 61% 30.09 in 6.2 mi ESE 6.9 mph - N/A   Partly Cloudy
4:30 PM 77.0 °F 64.4 °F 65% 30.09 in 6.2 mi SE 6.9 mph - N/A   Partly Cloudy
5:00 PM 77.0 °F 64.4 °F 65% 30.09 in 6.2 mi SE 5.8 mph - N/A   Partly Cloudy
5:30 PM 77.0 °F 64.4 °F 65% 30.06 in 6.2 mi ESE 5.8 mph - N/A   Partly Cloudy
6:00 PM 77.0 °F 64.4 °F 65% 30.06 in 6.2 mi SE 4.6 mph - N/A   Partly Cloudy
6:30 PM 75.2 °F 66.2 °F 73% 30.06 in 6.2 mi SE 6.9 mph - N/A   Partly Cloudy
7:00 PM 75.2 °F 66.2 °F 73% 30.06 in 6.2 mi SE 3.5 mph - N/A   Partly Cloudy
7:30 PM 73.4 °F 66.2 °F 78% 30.06 in 6.2 mi SE 3.5 mph - N/A   Partly Cloudy
8:00 PM 75 °F 66 °F 65% 30.09 in 12 mi SSE 2.3 mph - -   Scattered Clouds
8:00 PM 73.4 °F 64.4 °F 73% 30.06 in 6.2 mi SSE 2.3 mph - N/A   Partly Cloudy
8:30 PM 71.6 °F 64.4 °F 78% 30.09 in - SE 1.2 mph - N/A   Clear
9:00 PM 71.6 °F 64.4 °F 78% 30.09 in - Variable 1.2 mph - N/A   Clear
9:30 PM 71.6 °F 66.2 °F 83% 30.09 in - South 1.2 mph - N/A   Clear
10:00 PM 71.6 °F 64.4 °F 78% 30.09 in - Variable 1.2 mph - N/A   Clear
10:30 PM 71.6 °F 66.2 °F 83% 30.09 in - Variable 1.2 mph - N/A   Clear
11:00 PM 69.8 °F 64.4 °F 83% 30.12 in - SE 1.2 mph - N/A   Clear
11:30 PM 69.8 °F 64.4 °F 83% 30.12 in 6.2 mi Calm Calm - N/A   Partly Cloudy